KE9LZ Weather Reports


Display with metric or nautical units.
time (UTC)temp
F
wind
direction
speed
MPH
gust
MPH
rain 1hr
in
rain 24hr
in
rain mn
in
humidity
%
barometer
mb
20220528013004 62 104 1.0 2.0 0.00 0.03 0.03 62 1011.1
20220528012004 63 102 1.0 1.0 0.00 0.03 0.03 61 1011.3
20220528011004 64 103 0.0 1.0 0.00 0.03 0.03 60 1011.2
20220528010004 65 80 0.0 1.0 0.00 0.03 0.03 58 1011.0
20220528005004 66 68 1.0 3.0 0.00 0.03 0.03 57 1011.3
20220528004004 67 122 2.0 3.0 0.00 0.04 0.03 57 1011.0
20220528003004 67 71 2.0 5.0 0.00 0.04 0.03 56 1011.4
20220528002004 67 90 2.0 3.0 0.00 0.04 0.03 55 1011.2
20220528001004 67 108 2.0 3.0 0.00 0.04 0.03 55 1011.2
20220528000005 68 86 1.0 3.0 0.00 0.04 0.03 55 1011.1
20220527235004 68 36 3.0 5.0 0.00 0.04 0.03 54 1010.9
20220527234003 68 117 1.0 5.0 0.00 0.04 0.03 54 1011.1
20220527233004 68 57 2.0 5.0 0.00 0.04 0.03 54 1011.3
20220527232004 68 108 3.0 7.0 0.00 0.04 0.03 55 1011.2
20220527231004 68 90 3.0 5.0 0.00 0.04 0.03 54 1011.1
20220527230003 68 64 4.0 7.0 0.00 0.04 0.03 54 1011.1
20220527225004 68 117 3.0 6.0 0.00 0.04 0.03 53 1011.1
20220527224004 68 78 2.0 7.0 0.00 0.04 0.03 55 1011.1
20220527223004 68 30 5.0 9.0 0.00 0.04 0.03 52 1011.0
20220527222004 68 27 3.0 8.0 0.00 0.04 0.03 55 1011.3
20220527221004 67 286 2.0 7.0 0.00 0.04 0.03 55 1011.1
20220527220004 68 350 3.0 7.0 0.00 0.04 0.03 53 1011.1
20220527215004 68 318 5.0 9.0 0.00 0.04 0.03 53 1011.1
20220527214004 67 285 3.0 10.0 0.00 0.04 0.03 54 1011.1
20220527213004 67 49 2.0 7.0 0.00 0.04 0.03 56 1010.9
20220527212004 67 328 4.0 10.0 0.00 0.04 0.03 56 1011.1
20220527211004 66 310 5.0 13.0 0.00 0.04 0.03 56 1011.2
20220527210004 65 34 5.0 8.0 0.00 0.04 0.03 57 1011.2
20220527205004 65 33 5.0 16.0 0.00 0.04 0.03 58 1011.1
20220527204004 65 334 5.0 13.0 0.00 0.04 0.03 56 1011.2
20220527203004 66 304 5.0 13.0 0.00 0.04 0.03 58 1011.2
20220527202004 65 13 5.0 13.0 0.00 0.04 0.03 58 1011.1
20220527201004 65 359 5.0 14.0 0.00 0.04 0.03 57 1011.4
20220527200004 66 14 5.0 9.0 0.00 0.04 0.03 57 1011.1
20220527195005 64 10 5.0 15.0 0.00 0.04 0.03 58 1011.3
20220527194004 64 29 7.0 17.0 0.00 0.04 0.03 59 1011.1
20220527193004 65 7 5.0 14.0 0.00 0.04 0.03 58 1011.0
20220527192004 66 25 9.0 17.0 0.00 0.04 0.03 57 1011.1
20220527191004 66 15 8.0 12.0 0.00 0.04 0.03 57 1011.1
20220527190004 66 21 6.0 15.0 0.00 0.04 0.03 58 1011.1
20220527185004 65 36 7.0 14.0 0.00 0.04 0.03 57 1010.9
20220527184004 65 29 7.0 14.0 0.00 0.04 0.03 57 1011.0
20220527183005 65 325 6.0 15.0 0.00 0.04 0.03 58 1011.2
20220527182004 64 12 6.0 17.0 0.00 0.04 0.03 58 1011.4
20220527181005 64 3 7.0 17.0 0.00 0.04 0.03 59 1011.4
20220527180004 63 18 6.0 17.0 0.00 0.04 0.03 58 1011.3
20220527175004 62 13 7.0 18.0 0.00 0.04 0.03 61 1011.3
20220527174004 63 359 5.0 21.0 0.00 0.04 0.03 60 1011.4
20220527173005 63 9 6.0 18.0 0.00 0.04 0.03 59 1011.6
20220527172005 63 336 9.0 17.0 0.00 0.04 0.03 62 1011.1
20220527171004 63 20 10.0 17.0 0.00 0.04 0.03 63 1011.5
20220527170005 62 275 4.0 16.0 0.00 0.04 0.03 67 1011.3
20220527165004 61 6 10.0 16.0 0.00 0.04 0.03 67 1011.5
20220527164003 62 20 6.0 14.0 0.00 0.04 0.03 65 1011.4
20220527163004 62 15 8.0 14.0 0.00 0.04 0.03 66 1011.3
20220527162004 60 315 7.0 21.0 0.00 0.04 0.03 68 1011.3
20220527161004 59 47 4.0 16.0 0.00 0.04 0.03 70 1011.6
20220527160004 58 17 5.0 14.0 0.00 0.04 0.03 74 1011.6
20220527155004 58 358 5.0 15.0 0.00 0.04 0.03 74 1011.6
20220527154004 57 31 4.0 16.0 0.00 0.04 0.03 75 1011.6
20220527153005 57 30 5.0 15.0 0.00 0.04 0.03 74 1011.7
20220527152004 57 28 5.0 12.0 0.00 0.04 0.03 75 1011.7
20220527151004 57 58 5.0 15.0 0.00 0.04 0.03 75 1011.7
20220527150005 57 24 3.0 12.0 0.00 0.04 0.03 76 1011.8
20220527145004 57 22 5.0 12.0 0.00 0.04 0.03 76 1011.4
20220527144004 56 12 5.0 18.0 0.00 0.04 0.03 77 1011.5
20220527143004 56 20 7.0 20.0 0.00 0.04 0.03 77 1011.3
20220527142004 56 11 7.0 16.0 0.00 0.04 0.03 78 1011.4
20220527141004 55 344 4.0 16.0 0.00 0.04 0.03 79 1011.4
20220527140004 55 0 6.0 18.0 0.00 0.04 0.03 79 1011.4
20220527135004 55 16 4.0 18.0 0.00 0.04 0.03 80 1011.1
20220527134004 55 19 7.0 21.0 0.00 0.04 0.03 80 1011.4
20220527133004 56 2 9.0 18.0 0.00 0.04 0.03 79 1011.2
20220527132004 56 39 5.0 15.0 0.00 0.04 0.03 83 1011.3
20220527131004 55 22 4.0 14.0 0.00 0.04 0.03 83 1011.1
20220527130005 55 20 7.0 15.0 0.00 0.04 0.03 83 1011.1
20220527125004 54 13 8.0 22.0 0.00 0.04 0.03 84 1010.9
20220527124004 54 3 3.0 13.0 0.00 0.04 0.03 86 1011.0
20220527123004 54 13 6.0 14.0 0.00 0.04 0.03 86 1010.9
20220527122004 54 5 5.0 12.0 0.00 0.04 0.03 87 1010.6
20220527121004 53 0 5.0 12.0 0.00 0.04 0.03 87 1010.9
20220527120004 53 25 5.0 15.0 0.00 0.04 0.03 88 1010.8
20220527115004 53 356 4.0 14.0 0.00 0.04 0.03 89 1010.7
20220527114004 53 338 5.0 12.0 0.00 0.04 0.03 89 1010.7
20220527113004 53 348 5.0 15.0 0.00 0.04 0.03 89 1010.5
20220527112004 53 5 5.0 12.0 0.00 0.04 0.03 89 1010.6
20220527111004 53 340 5.0 13.0 0.00 0.04 0.03 89 1010.5
20220527110004 53 358 4.0 14.0 0.00 0.04 0.03 90 1010.5
20220527105005 53 10 5.0 12.0 0.00 0.04 0.03 90 1010.4
20220527104004 52 19 4.0 13.0 0.00 0.04 0.03 90 1010.3
20220527103004 52 350 4.0 12.0 0.00 0.04 0.03 91 1010.4
20220527102004 52 8 4.0 10.0 0.00 0.04 0.03 91 1010.3
20220527101004 52 13 3.0 7.0 0.00 0.04 0.03 91 1010.1
20220527100003 52 13 1.0 6.0 0.00 0.04 0.03 92 1010.2
20220527095004 52 320 3.0 8.0 0.00 0.04 0.03 92 1010.1
20220527094003 52 339 6.0 8.0 0.00 0.04 0.03 93 1010.2
20220527093004 52 340 3.0 6.0 0.00 0.04 0.03 93 1010.1
20220527092004 52 354 3.0 10.0 0.00 0.04 0.03 93 1009.9
20220527091004 52 9 3.0 9.0 0.00 0.04 0.03 95 1009.9
20220527090003 52 13 7.0 10.0 0.01 0.04 0.03 95 1009.9
20220527085004 52 40 2.0 5.0 0.02 0.05 0.03 95 1009.7
20220527084004 52 338 1.0 3.0 0.02 0.05 0.03 95 1009.6
20220527083004 52 28 3.0 5.0 0.02 0.05 0.03 95 1009.8
20220527082004 52 33 3.0 7.0 0.02 0.05 0.02 95 1009.9
20220527081004 52 26 4.0 8.0 0.02 0.07 0.02 95 1009.8
20220527080004 52 16 3.0 7.0 0.01 0.09 0.02 95 1010.0
20220527075004 52 64 3.0 8.0 0.00 0.10 0.01 95 1009.8
20220527074004 52 34 4.0 10.0 0.01 0.13 0.01 95 1009.7
20220527073005 52 17 3.0 13.0 0.00 0.15 0.01 95 1009.7
20220527072003 52 38 3.0 12.0 0.00 0.18 0.01 95 1009.9
20220527071004 53 44 3.0 10.0 0.00 0.18 0.01 95 1009.8
20220527070004 53 28 3.0 15.0 0.00 0.18 0.01 95 1009.8
20220527065004 53 22 4.0 10.0 0.00 0.18 0.01 95 1009.9
20220527064004 53 72 3.0 7.0 0.00 0.18 0.00 95 1009.6
20220527063004 53 40 4.0 10.0 0.00 0.18 0.00 95 1010.0
20220527062004 53 22 4.0 14.0 0.00 0.18 0.00 95 1009.8
20220527061004 54 24 3.0 14.0 0.00 0.18 0.00 95 1009.7
20220527060004 54 23 5.0 16.0 0.00 0.18 0.00 95 1009.7
20220527055004 54 32 6.0 14.0 0.00 0.18 0.00 95 1009.5
20220527054004 54 33 5.0 12.0 0.01 0.18 0.00 95 1009.5
20220527053004 54 22 5.0 10.0 0.00 0.17 0.00 95 1009.6
20220527052004 54 52 4.0 14.0 0.00 0.17 0.00 95 1009.7
20220527051006 54 38 6.0 14.0 0.00 0.17 0.00 94 1009.7
20220527050004 55 31 6.0 14.0 0.00 0.17 0.00 94 1009.8
20220527045004 55 31 6.0 13.0 0.00 0.17 0.17 93 1009.9
20220527044004 55 24 6.0 9.0 0.00 0.17 0.17 93 1010.0
20220527043004 56 30 6.0 10.0 0.00 0.17 0.17 93 1010.4
20220527042004 56 58 2.0 12.0 0.00 0.19 0.17 92 1009.9
20220527041004 56 1 5.0 12.0 0.00 0.19 0.17 92 1010.0
20220527040005 56 2 5.0 10.0 0.00 0.19 0.17 92 1010.1
20220527035003 56 57 5.0 13.0 0.00 0.19 0.17 92 1009.9
20220527034004 57 50 4.0 9.0 0.00 0.19 0.17 92 1010.0
20220527033003 57 96 2.0 12.0 0.00 0.19 0.17 92 1010.1
20220527032004 57 19 5.0 15.0 0.00 0.22 0.17 92 1009.8
20220527031004 57 33 6.0 14.0 0.00 0.22 0.17 92 1009.7
20220527030005 57 19 7.0 12.0 0.00 0.22 0.17 93 1009.8
20220527025004 57 8 6.0 17.0 0.00 0.22 0.17 93 1009.7
20220527024004 57 23 7.0 17.0 0.00 0.22 0.17 93 1009.4
20220527023004 58 26 7.0 14.0 0.00 0.22 0.17 93 1009.2
20220527022004 58 35 9.0 15.0 0.00 0.22 0.17 92 1009.0
20220527021003 59 25 6.0 14.0 0.00 0.22 0.17 91 1009.1
20220527020004 59 42 5.0 13.0 0.00 0.22 0.17 91 1008.5
20220527015004 59 37 4.0 12.0 0.00 0.22 0.17 92 1008.8
20220527014004 59 29 3.0 8.0 0.00 0.23 0.17 92 1008.8